Regional Weather Roundup
Issued by NWS

Home | Current Version | Previous Version | Graphics & Text | Print | Product List | Glossary On
Versions: 1 2 3 4 5 6 7 8 9 10 11 12 13 14 15 16 17 18 19 20 21 22 23 24 25 26 27 28 29 30 31 32 33 34 35 36 37 38 39 40 41 42 43 44 45 46 47 48 49 50
000
ASUS45 KBOU 211907
RWRCO

WEATHER ROUNDUP FOR COLORADO
NATIONAL WEATHER SERVICE DENVER/BOULDER CO
100 PM MDT THU MAY 21 2015

NOTE: "FAIR" INDICATES FEW OR NO CLOUDS BELOW 12000 FEET WITH NO
SIGNIFICANT WEATHER AND/OR OBSTRUCTIONS TO VISIBILITY.

COZ001>005-013-030-031-212000-
...NORTHWEST COLORADO...

CITY           SKY/WX    TMP DP  RH WIND       PRES   REMARKS
CRAIG          PTSUNNY   63  37  38 VRB5      30.07F
HAYDEN         PTSUNNY   61  34  36 SW15      30.09S
MEEKER         CLOUDY    63  34  33 SW5       30.06F
MOUNT WERNER   NOT AVBL
STEAMBOAT SPGS CLOUDY    62  28  27 SE3       30.10R
WALDEN         PTSUNNY   55  27  33 SW6       30.14F
$$

COZ006>008-011-212000-
...WEST CENTRAL VALLEYS...

CITY           SKY/WX    TMP DP  RH WIND       PRES   REMARKS
GRAND JUNCTION CLOUDY    69  37  30 S6        29.96F
MONTROSE       CLOUDY    65  38  36 NW7       30.06S
EAGLE          MOSUNNY   66  30  26 W8        30.08F
RIFLE          PTSUNNY   66  40  38 S6        30.02F
DELTA          CLOUDY    71  33  24 SE3       30.01F
NUCLA          CLOUDY    68  34  28 N9        30.04F
$$

COZ017>023-064>068-212000-
...SOUTHWEST COLORADO...

CITY           SKY/WX    TMP DP  RH WIND       PRES   REMARKS
DURANGO        PTSUNNY   63  39  41 SE9G20    30.09F
CORTEZ         SUNNY     69  39  33 SE14G24   30.03F
PAGOSA SPRINGS PTSUNNY   63  31  30 S13G18    30.16F
TELLURIDE      CLOUDY    56  24  29 SW10G16   30.18F
WOLF CREEK PAS NOT AVBL
$$

COZ009-010-012-014-032>034-037-058>063-212000-
...CENTRAL COLORADO...

CITY           SKY/WX    TMP DP  RH WIND       PRES   REMARKS
ASPEN          PTSUNNY   62  27  26 NW5       30.10F
BUENA VISTA    CLOUDY    50  39  65 CALM      30.22F
COPPER MTN     CLOUDY    41  27  56 W10G18    30.35F
BERTHOUD PASS  HVY SNOW  28  21  74 SE16      30.40R VSB<1/4 WCI  17
COTTONWOOD PAS CLOUDY    45  36  70 CALM      30.29F
GUNNISON       CLOUDY    57  30  35 NE6       30.16F
KREMMLING      PTSUNNY   66  27  22 W15G22    30.11F
LEADVILLE      CLOUDY    49  31  49 S16       30.23F
SALIDA         CLOUDY    57  43  59 E7        30.27F
SUNLIGHT       PTSUNNY   46  30  53 CALM      30.30F
WILKERSON PASS CLOUDY    39  34  81 SW5       30.38S
$$

COZ069>075-212000-
...SAN LUIS VALLEY/SANGRE DE CRISTO MOUNTAINS...

CITY           SKY/WX    TMP DP  RH WIND       PRES   REMARKS
ALAMOSA        MOSUNNY   61  38  42 SW7       30.15F
LA VETA PASS   FOG      N/A N/A N/A MISG      30.31F VSB<1/4
SAGUACHE       PTSUNNY   54  37  54 SE5       30.20F
$$

COZ035-036-038>040-212000-
...NORTHERN COLORADO FRONT RANGE...

CITY           SKY/WX    TMP DP  RH WIND       PRES   REMARKS
DENVER INTL AP CLOUDY    54  43  66 VRB5      30.17F
DMNS CITY PARK   N/A     51  40  66 N6        30.18F
AURORA         CLOUDY    53  42  67 N7        30.18F
FRONT RANGE AP CLOUDY    55  46  71 NW3       30.18F
ERIE MUNI ARPT CLOUDY    50  41  71 N6        30.19S
BOULDER MUN AP CLOUDY    46  41  81 NE3       30.19S
CENTENNIAL     CLOUDY    52  41  66 E6        30.18S
BROOMFIELD     CLOUDY    48  41  76 CALM      30.20F
FORT COLLINS   CLOUDY    48  39  71 NW3       30.21S
LONGMONT       CLOUDY    53  41  64 CALM      30.21S
$$

COZ041-046-047-076>085-087-088-212000-
...PIKES PEAK/PALMER DIVIDE AND SOUTHERN FOOTHILLS...

CITY           SKY/WX    TMP DP  RH WIND       PRES   REMARKS
COLO. SPRINGS  DRIZZLE   42  42 100 S8        30.24F FOG
A. F. ACADEMY  DRIZZLE   41  41 100 S14       30.22F
ELLICOTT       NOT AVBL
FALCON         CLOUDY    40  40  98 S12       30.24F FOG
FORT CARSON    NOT AVBL
LIMON          CLOUDY    46  41  82 S14G23    30.23F
MONUMENT HILL  CLOUDY    45  37  76 MISG      30.21S
TRINIDAD       CLOUDY    54  43  66 CALM      30.21F
$$

COZ042>045-048>051-090-091-212000-
...NORTHEAST COLORADO...

CITY           SKY/WX    TMP DP  RH WIND       PRES   REMARKS
GREELEY ARPT   CLOUDY    52  39  62 CALM      30.19F
AKRON          CLOUDY    53  44  71 SE15      30.21F
BURLINGTON     CLOUDY    53  42  66 S12       30.26F
WRAY           CLOUDY    57  41  55 S10G16    30.25F
STERLING       CLOUDY    54  43  66 S14       30.21S
HOLYOKE        NOT AVBL
FORT MORGAN    CLOUDY    56  42  59 S13       30.20F
$$

COZ086-089-092>099-212000-
...SOUTHEAST COLORADO...

CITY           SKY/WX    TMP DP  RH WIND       PRES   REMARKS
PUEBLO         CLOUDY    48  44  86 NE6       30.22F
LA JUNTA       CLOUDY    55  46  71 E16       30.22F
LAMAR          CLOUDY    57  44  62 SE13G20   30.22F
SPRINGFIELD      N/A     49  42  77 S10       30.26F
$$



USA.gov is the U.S. government's official web portal to all federal, state and local government web resources and services.